COSMOS 1275 DEB, 12705

Orbit data source: Space-Track

COSMOS 1275 DEB, 12705 is space debris in LEO originally from a launch on Thu, 04 Jun 1981 UTC launched from the Plesetsk Missile And Space Complex (PKMTR). Debris objects in space refer to the collection of defunct objects orbiting the Earth. Examples of debris include non-operational satellites, rocket bodies, and fragments generated from explosions, collisions, or faulty payload assembly.

Loading next visibility...
Identifier
12705, 1981-053AZ
Orbit
LEO
Country
Flag of CISCIS
Related business
Manufacturer
Unknown
Mission
Spacecraft
Bus & Motor
Unknown
Mass
Unknown
Launch date (UTC)
1981-06-04 (45 years ago)
Launch vehicle
Unknown
Launch site
Plesetsk Missile And Space Complex (PKMTR)
Object type
Payload
Rocket body
Debris
Shape & HBR
Unknown shape, 0.3 m
Radar Cross Section
Medium (>0.1 m² and <1 m²)

Expand to show TLE details & history
Last TLE update: 2 days ago

TLE from 2 days ago
0 COSMOS 1275 DEB
1 12705U 81053AZ  26171.40220541  .00000967  00000-0  58663-3 0  9990
2 12705  82.8864 223.0137 0027492 188.3501 189.3471 14.05204384274491
Epoch: 2026-06-20T09:39Z
TLE epoch observation values (Epoch: 2026-06-20T09:39:10.547Z)
Latitude
17.49487°
Longitude
171.84496°
Altitude
897.864 km
Speed
7.395 km/s
True Right ascension
15h 01m 01s
True Declination
17° 23' 54"
Sunlit
Object was in full shadow at epoch
Visualization orbit readout
Latitude
Unknown
Longitude
Unknown
Altitude
Unknown
Speed
Unknown
Apparent Right ascension
Unknown
Apparent Declination
Unknown
Sunlit
N/A
Visualization observer readout
Local Sidereal Time
17:30:56
Azimuth
Unknown
Elevation
Unknown
Doppler factor
Unknown
Orbital elements
Apogee altitude
892.873 km
Perigee altitude
853.004 km
Semi-major axis
7,251.075 km
Eccentricity
0.00275
Inclination
82.8864°
RAAN
223.0137°
Arg. of periapsis
188.3501°
True anomaly
189.29611°
Mean anomaly
189.3471°
Eccentric anomaly
189.32159°
Mean motion
3.51512 °/min
Orbital period
102.41 mins
BSTAR
0.00058663
Loading maneuver chart data...
Computing Atmospheric mass density...
Loading historical data...
Loading historical data...
Loading historical data...
Loading historical data...
Loading historical data...
Loading historical data...
Loading historical data...

Documentation

Showing up to 5 results
|